Location: Aalen
(48.8330°N, 10.1000°E)
Time: 20:03:03
(UTC+02:00)

CAS-6 - Pass Details

Date: 28 March 2023
Orbit: 610 x 632 km, 97.9° (Epoch: 04 June)

Event Time Altitude Azimuth Distance (km) Brightness Sun altitude
Exits shadow 22:25:19 19° 36° (NE) 1,489 ? -25.1°
Drops below altitude 10° 22:27:19 10° 12° (NNE) 2,003 ? -25.4°
Sets 22:29:53 0° 358° (N) 2,919 ? -25.7°
